Wind_Speed
22 19 19 21 23 25 26 26 25 23 22 22 21 20 21 21 20 19 18 16 15 15 16 16 17 17 17 17 17 16 16 15 14 13 12 12 11 10 10 10 11 11 12 14 16 19 21 21 21 23 22 21 20 18 17 15 14 14 14 13 13 13 13
26 22 20 20 21 24 25 25 26 26 25 24 22 21 21 21 21 21 19 17 16 16 17 17 17 18 18 19 19 18 18 17 16 16 15 14 14 14 13 13 12 12 13 14 16 19 21 20 21 22 22 20 19 17 16 15 14 14 14 13 13 13 14
26 24 22 20 21 22 23 24 26 27 27 26 25 23 21 19 19 19 18 17 17 17 18 19 19 19 19 20 21 20 20 19 18 17 16 16 17 17 16 15 14 14 14 15 16 19 20 20 21 22 21 20 18 17 15 14 13 14 14 13 14 14 14
26 25 23 21 20 20 21 23 24 24 26 26 25 24 21 18 16 16 16 15 16 17 18 18 19 20 21 22 22 22 22 22 21 19 19 19 19 19 18 17 16 16 16 16 17 18 20 20 21 22 21 19 18 16 15 14 13 13 13 13 13 14 14
28 26 24 24 23 22 23 24 23 23 23 24 24 23 22 20 18 17 16 15 15 15 16 18 19 20 22 23 24 24 25 24 23 22 22 22 22 21 20 18 17 18 18 18 18 18 20 21 21 22 22 20 18 17 15 14 14 13 13 13 13 13 14
29 28 27 27 25 24 24 24 23 23 21 21 21 20 19 19 19 18 17 17 16 16 17 18 20 21 23 24 26 27 27 27 26 25 25 25 25 23 22 20 19 20 19 19 19 19 20 21 21 22 22 20 18 17 15 15 15 15 14 14 14 14 14
30 28 28 28 26 24 24 22 22 22 19 18 19 19 20 19 18 18 18 19 20 20 20 19 20 22 23 25 27 29 30 30 29 29 28 28 26 25 23 21 21 21 21 20 20 21 21 21 22 22 21 19 18 17 16 15 16 16 16 15 15 15 15
26 27 28 28 26 24 22 21 21 20 19 19 20 21 22 21 20 20 21 21 22 23 24 23 22 23 24 26 27 28 31 33 33 32 31 29 28 26 24 23 23 23 22 22 22 21 21 21 22 22 20 18 17 16 15 15 15 16 16 16 16 16 16
23 27 28 26 24 22 21 21 20 19 20 20 20 20 21 21 22 22 22 22 23 25 26 26 26 26 26 27 28 28 30 34 36 34 33 32 30 28 26 25 24 25 24 23 22 20 20 23 23 22 20 17 16 15 14 14 14 15 16 15 15 15 15
21 26 27 25 23 22 22 22 21 21 22 21 21 22 23 23 24 24 23 24 24 25 25 28 30 29 28 29 29 29 30 33 36 37 35 34 31 29 28 27 27 26 25 24 22 20 21 24 23 21 19 16 14 14 13 13 13 14 14 14 14 14 14
21 25 26 24 23 22 22 22 22 23 23 22 22 23 23 24 25 24 24 25 24 23 25 29 31 32 32 31 31 32 32 32 34 37 37 35 33 31 30 30 29 28 27 26 24 22 22 23 21 19 18 14 13 13 12 12 13 13 14 14 14 14 14
20 23 24 24 21 18 18 19 21 22 22 22 23 23 24 24 25 24 25 25 25 24 25 28 30 32 34 34 34 35 35 34 34 36 37 35 33 32 32 31 31 30 30 28 24 22 22 21 20 19 16 12 12 12 12 12 13 13 13 14 15 15 16
20 22 24 23 20 17 17 18 19 20 21 22 23 24 24 25 25 25 26 26 26 26 27 28 29 31 33 36 37 37 38 39 37 36 35 34 32 32 32 32 33 33 31 27 23 22 20 18 18 18 14 11 12 12 12 13 14 14 14 14 15 16 17
24 25 25 24 21 20 19 19 20 20 20 21 21 22 23 23 24 25 26 27 27 27 28 28 29 30 32 34 37 39 43 45 40 33 30 31 31 32 33 34 35 34 31 27 25 22 18 17 18 16 12 12 12 12 12 14 15 16 17 17 18 19 19
27 26 25 25 22 20 20 20 21 21 20 19 18 19 20 20 22 24 25 27 27 28 29 28 29 30 29 32 38 44 48 47 40 30 28 32 33 33 35 36 35 34 31 28 26 22 18 19 18 15 13 13 12 12 14 15 17 19 20 21 21 22 23
27 27 26 26 22 20 20 20 20 18 17 16 15 15 16 16 18 20 23 26 28 28 29 29 29 29 30 37 45 47 46 46 41 33 29 33 36 35 35 36 35 33 31 28 24 19 17 18 17 14 13 13 13 14 16 17 19 21 22 24 24 25 26
26 27 28 26 23 21 21 20 18 16 13 11 10 10 11 12 14 17 20 23 25 27 28 29 29 31 36 43 46 44 42 42 39 33 31 31 33 33 34 34 33 32 31 27 20 16 17 17 15 13 13 13 14 16 18 20 22 23 25 26 27 28 30
26 29 29 26 22 22 22 22 19 14 9 8 8 9 10 11 13 15 17 18 19 21 23 24 27 32 37 39 38 40 43 40 33 31 31 29 30 33 33 31 30 30 31 26 18 16 17 16 14 13 13 14 16 18 20 22 24 26 28 29 30 31 33
28 29 27 23 21 20 21 22 19 13 9 8 9 12 13 14 15 15 15 16 16 17 19 21 25 29 32 31 31 36 41 37 29 28 28 26 31 37 34 29 28 28 26 21 17 17 17 16 14 14 14 16 18 19 21 23 25 27 30 32 33 34 35
29 28 24 21 20 19 19 21 20 16 13 12 13 15 15 16 18 17 17 17 18 19 21 24 27 28 29 29 30 32 35 32 28 26 23 24 33 36 30 27 27 25 22 18 17 17 16 15 15 15 16 18 20 22 23 24 25 27 30 31 33 34 36
29 26 23 21 20 19 20 21 20 16 14 14 16 17 18 19 20 21 21 21 21 22 24 26 29 30 30 30 31 31 31 29 26 24 21 22 28 30 27 25 24 23 20 18 17 16 16 16 17 17 18 20 22 24 26 25 26 27 28 30 31 34 36
27 23 21 19 20 20 19 19 17 15 15 18 20 21 21 21 22 22 23 24 25 26 28 29 30 32 31 31 32 32 31 28 26 24 22 21 23 26 25 23 23 24 21 17 15 16 17 18 18 18 20 22 24 27 28 27 27 28 29 30 32 34 37
23 21 20 19 20 20 19 18 18 19 20 21 22 22 21 20 21 21 22 24 25 27 28 29 31 31 31 31 30 29 28 26 24 24 23 23 24 24 22 22 23 24 20 16 15 17 19 19 20 21 22 24 26 28 29 29 29 30 31 32 33 35 37
22 21 21 20 21 21 21 20 21 21 21 21 21 20 20 20 20 20 20 20 21 22 25 26 28 29 29 28 25 23 25 24 22 24 25 24 23 22 21 22 22 20 17 15 16 18 20 21 22 23 24 26 27 28 29 29 30 31 33 33 34 36 37
25 25 24 23 23 21 19 19 20 21 20 19 18 18 17 17 16 17 17 18 19 20 22 23 24 24 24 23 21 21 24 24 23 26 26 22 21 22 22 21 19 18 16 16 18 19 22 24 25 24 25 26 27 28 29 29 30 31 33 34 35 37 37
28 27 26 25 23 21 19 18 17 17 16 15 15 16 15 15 14 15 17 18 20 21 22 22 23 23 23 24 22 21 22 23 23 24 22 22 23 23 22 19 17 16 16 17 19 22 24 24 24 23 22 24 26 27 28 29 29 30 32 35 36 37 37
27 26 26 26 24 22 21 19 16 13 13 13 14 16 16 16 16 15 16 18 20 22 23 24 25 26 27 27 24 21 21 22 21 21 22 24 24 22 19 16 16 15 15 17 20 22 22 20 20 19 19 21 23 24 26 27 29 30 32 34 36 36 37
26 25 26 25 23 21 19 17 16 14 14 15 16 17 18 19 18 18 19 19 20 22 23 25 26 27 27 27 24 21 21 22 22 24 24 23 22 20 17 17 15 14 15 18 19 18 16 15 16 17 18 19 21 23 25 26 27 28 30 31 33 34 35
24 24 23 21 19 17 15 15 15 15 16 17 18 19 19 19 19 20 22 22 21 22 22 23 25 25 25 25 22 19 20 21 24 27 24 22 20 19 17 15 13 12 14 15 15 14 13 14 16 17 18 20 21 24 25 26 27 27 28 29 30 32 33
21 19 18 16 14 14 13 13 14 15 17 18 18 19 19 20 21 23 24 24 23 23 22 23 23 23 23 23 20 20 21 24 28 28 24 22 21 18 15 12 10 11 13 14 14 14 14 15 17 19 20 22 23 25 26 27 27 28 29 29 30 30 31
20 18 17 15 13 13 12 12 12 14 16 17 18 19 21 22 23 24 25 25 24 23 22 22 22 21 21 21 20 22 25 27 30 28 24 22 21 18 15 12 11 14 15 15 14 14 15 17 20 22 23 25 25 26 26 27 27 28 29 30 31 31 30
24 22 20 17 14 13 13 15 16 17 19 21 23 24 24 24 24 25 24 24 23 22 21 20 20 19 19 19 21 27 29 29 29 27 25 23 22 21 17 14 15 17 16 15 15 16 18 19 21 24 25 26 26 26 27 27 28 29 29 30 31 31 30
26 24 21 18 15 15 16 18 20 22 24 27 28 28 26 25 25 24 23 22 21 20 19 18 17 17 17 18 25 30 29 27 28 27 26 25 23 21 18 17 17 16 15 16 18 19 20 21 23 24 25 26 27 28 29 29 29 30 30 31 32 31 30
24 24 23 22 23 21 18 18 21 24 26 27 27 28 27 25 24 23 22 21 21 19 18 17 16 15 16 21 28 30 28 28 28 27 26 24 21 19 18 17 16 16 17 20 21 21 22 23 24 25 25 27 28 29 30 31 32 32 32 32 32 31 30
29 29 28 27 28 29 26 23 23 24 24 23 24 25 25 24 23 22 22 21 20 19 17 15 15 16 20 25 29 29 28 29 27 25 24 21 18 17 17 16 16 19 21 23 23 23 24 24 25 25 26 28 29 31 32 33 34 35 34 33 32 31 30
30 32 31 31 32 32 28 25 24 23 22 21 22 23 23 22 21 21 21 20 19 18 16 14 15 20 24 27 29 30 30 28 25 24 23 21 19 18 17 17 19 22 23 24 24 24 25 25 26 26 27 29 30 32 33 35 36 35 35 33 32 31 29
29 30 31 32 30 26 22 21 22 23 22 21 22 21 20 20 19 19 19 18 17 17 15 14 17 22 26 28 30 31 30 27 24 22 22 22 22 21 20 20 21 21 22 23 24 25 26 26 27 28 29 30 31 32 33 35 36 36 35 33 32 30 29
27 27 27 26 24 22 22 23 24 23 21 21 20 19 18 17 16 15 15 15 15 15 14 13 16 22 28 31 33 31 28 25 23 23 22 23 24 22 22 22 22 21 22 24 25 26 26 27 28 29 30 31 32 33 34 35 36 36 34 33 31 30 28
Wind_Direction
251 243 235 233 230 226 226 227 230 231 231 231 233 235 234 231 228 225 224 224 225 226 225 224 223 221 223 223 221 222 224 226 229 234 242 251 261 272 283 293 302 312 324 333 339 345 348 348 349 349 344 338 332 327 324 319 313 308 305 307 309 309 310
248 242 234 231 230 229 229 230 232 234 235 235 235 236 238 237 234 231 229 229 231 233 233 232 230 230 230 230 229 231 231 233 234 238 246 253 261 271 279 288 295 303 312 321 330 340 345 347 347 346 342 336 332 328 323 317 313 311 310 312 312 311 310
246 240 231 226 226 227 230 231 233 235 237 238 239 240 242 244 243 237 235 235 237 238 239 238 237 236 236 236 237 239 239 239 240 243 248 253 260 268 275 282 287 293 302 311 320 332 341 344 344 343 339 334 331 329 324 319 317 315 314 313 311 309 307
243 239 234 229 225 224 227 230 232 234 237 239 242 245 247 248 246 237 233 234 237 242 244 246 246 244 243 243 243 245 245 246 246 247 249 253 258 264 271 276 280 285 294 303 313 324 334 338 339 338 336 333 331 329 328 325 323 319 316 313 310 307 305
239 235 231 228 222 219 221 222 225 229 233 237 240 244 246 247 244 238 234 233 235 241 244 246 248 247 247 247 246 247 247 248 249 250 251 253 256 261 266 270 273 280 288 297 306 315 325 331 334 333 332 331 330 330 329 328 324 322 319 316 312 308 308
229 225 221 221 217 214 215 215 218 222 226 232 236 240 242 242 242 239 236 235 233 234 235 237 240 244 246 246 245 244 244 245 248 249 249 250 253 257 261 263 268 276 284 293 301 307 316 324 327 328 330 329 328 329 329 328 325 323 322 319 316 313 310
223 220 218 217 213 210 211 212 216 219 221 226 229 234 236 237 236 233 231 231 230 231 232 233 237 242 245 246 246 244 242 242 243 244 246 248 251 254 256 259 265 274 282 289 296 302 310 318 321 324 327 326 326 328 328 327 325 322 320 317 315 315 313
226 219 215 213 210 210 211 213 217 219 220 222 224 230 233 234 234 232 231 232 236 239 238 238 242 246 249 249 248 248 248 246 243 242 244 246 249 252 253 257 263 272 279 285 292 299 307 316 318 320 322 323 324 327 326 324 321 317 315 313 312 314 314
227 216 210 209 210 211 211 213 218 221 224 225 228 232 232 232 234 234 235 238 243 247 246 245 247 249 251 251 249 251 251 248 244 244 245 246 248 250 252 255 262 270 275 281 288 295 304 312 314 315 317 319 322 323 321 317 313 311 309 308 310 312 312
222 211 206 204 208 210 210 215 220 224 228 228 230 232 230 232 234 236 239 241 242 246 250 251 250 250 252 254 252 252 251 247 244 243 246 247 247 249 251 254 261 266 270 276 282 291 304 309 308 309 311 316 320 318 314 312 308 305 303 305 308 310 310
216 206 203 202 205 207 210 215 218 220 223 224 227 230 230 232 236 238 241 242 243 246 250 253 253 253 253 254 255 254 251 248 245 243 244 245 247 249 251 254 258 262 267 273 279 289 302 305 302 304 307 312 316 314 312 310 305 301 301 304 308 309 308
213 207 204 202 203 206 212 217 218 218 219 222 227 232 235 237 240 241 242 244 246 247 248 252 255 255 254 255 256 254 253 252 247 241 241 243 245 247 249 252 255 260 266 272 278 289 298 297 295 298 301 308 313 312 313 311 306 303 303 305 308 309 309
211 211 206 203 203 208 214 217 216 216 218 222 228 232 235 237 239 241 243 245 247 247 248 249 251 254 256 256 255 255 257 255 244 234 236 241 243 244 247 251 254 260 266 268 275 288 291 286 285 288 294 305 311 312 314 313 309 306 305 307 310 311 312
212 212 207 204 205 209 214 215 214 216 218 220 224 227 230 232 234 238 242 244 245 247 248 249 250 252 253 256 258 257 253 247 236 228 231 235 238 241 245 250 254 259 263 265 274 284 283 275 277 281 292 306 310 311 313 312 311 308 306 307 309 309 311
215 213 209 207 208 211 214 214 214 216 216 217 221 225 229 231 233 236 239 242 245 247 248 250 253 253 254 259 258 251 245 240 235 235 233 228 232 242 247 249 253 257 259 265 275 279 272 270 275 282 297 307 308 310 310 310 310 308 305 306 306 306 307
218 216 213 210 209 212 211 209 210 210 211 215 222 229 233 238 242 242 242 244 246 249 251 254 256 258 260 261 258 253 249 247 247 251 247 234 233 241 243 246 251 255 259 268 275 270 263 268 276 286 299 304 304 307 309 309 309 305 303 303 303 304 305
220 218 215 210 208 208 206 204 203 201 206 217 225 238 250 255 256 254 251 250 249 249 251 253 258 261 260 261 264 266 263 258 257 261 256 242 235 235 238 245 251 254 261 271 272 263 264 271 278 290 299 302 305 309 311 311 309 307 305 304 302 302 303
222 219 213 208 204 204 203 203 204 206 217 227 237 259 269 269 265 261 260 260 258 256 255 256 259 260 260 265 275 279 273 267 265 262 256 246 234 231 237 246 252 257 265 271 267 261 268 274 281 293 302 303 307 310 310 310 309 308 308 308 307 305 304
223 216 210 205 203 205 209 211 214 224 237 244 257 269 272 271 270 266 263 264 265 264 263 263 262 262 266 273 282 284 281 279 271 261 258 249 235 231 235 242 248 257 263 263 259 261 269 277 285 295 301 302 304 305 305 307 308 308 309 310 309 308 306
219 212 207 203 202 207 214 217 222 234 247 257 266 268 269 272 271 265 257 255 260 264 263 264 265 267 272 277 278 281 285 286 278 267 259 246 238 237 236 237 242 250 252 249 253 262 269 277 285 291 295 297 299 300 301 303 305 306 306 306 306 305 303
214 207 202 200 201 206 213 218 225 236 249 257 261 263 265 266 266 263 257 250 252 257 260 262 265 269 274 277 277 280 285 288 280 267 251 239 238 236 230 228 233 239 240 241 251 261 267 274 280 284 288 291 293 294 296 299 301 300 299 298 297 297 297
210 204 200 200 203 208 214 219 227 237 246 253 260 265 266 265 265 266 264 258 254 253 255 259 264 268 271 275 277 282 289 290 280 264 247 231 226 222 217 217 223 229 232 236 246 257 265 271 276 280 283 286 288 289 292 295 297 295 292 290 289 289 291
208 203 202 204 206 209 214 220 228 237 247 257 264 265 263 265 268 269 268 266 262 260 261 264 267 269 270 274 278 284 289 286 274 262 246 222 210 210 210 212 218 225 229 232 242 255 264 269 273 277 281 283 285 287 290 292 293 291 288 286 285 286 287
203 202 202 203 205 209 216 225 234 243 252 260 262 261 263 269 271 270 267 264 264 267 269 271 273 273 272 273 276 282 285 278 267 258 245 220 202 199 203 211 220 223 225 230 240 253 261 266 269 273 277 280 284 287 289 290 290 289 287 285 285 285 286
202 203 201 203 208 215 224 234 242 249 255 258 259 263 270 274 273 272 267 261 260 263 266 269 272 272 270 270 270 275 278 275 269 261 244 214 194 195 200 208 216 219 222 229 239 250 259 265 270 274 278 281 285 288 290 290 288 286 285 285 285 286 285
203 202 202 204 210 220 232 241 248 252 256 261 267 272 276 280 282 278 270 264 261 260 260 262 264 265 268 272 272 272 272 270 266 255 229 198 194 202 203 204 211 219 227 236 244 254 261 267 273 278 282 285 288 290 291 292 291 288 286 285 285 285 285
200 201 204 208 214 222 232 240 244 251 261 269 277 282 287 291 292 287 280 274 268 265 262 262 265 268 273 277 276 269 264 261 253 234 208 195 199 205 205 208 215 222 234 244 253 259 265 272 278 284 289 292 294 295 295 295 293 290 286 284 283 284 284
200 204 208 212 218 225 232 236 239 246 258 266 277 286 290 292 292 292 292 287 278 272 270 270 273 275 278 283 279 262 252 248 232 212 202 199 201 203 205 213 218 225 239 250 256 262 270 280 288 295 300 301 301 302 300 298 294 290 286 284 282 282 283
202 208 212 215 221 225 231 238 244 250 259 267 277 284 285 288 291 294 297 295 287 283 280 279 279 279 281 285 276 252 242 234 213 201 200 201 201 202 205 209 216 229 243 252 258 266 280 294 300 305 308 309 310 309 306 301 297 294 292 289 287 285 284
203 208 211 214 220 226 235 244 252 261 269 274 279 282 284 289 292 294 297 296 292 290 287 283 282 283 285 283 264 236 226 214 200 196 201 202 201 202 199 199 214 234 246 253 260 273 289 300 305 308 311 313 314 314 310 305 301 301 300 296 291 288 285
191 192 195 198 205 216 230 248 266 279 283 282 285 288 289 290 291 293 296 295 293 291 289 286 284 284 284 277 249 218 205 200 199 200 201 200 200 197 191 197 223 238 247 255 265 281 293 298 302 306 307 310 314 317 316 311 307 305 302 297 292 288 285
192 193 194 197 209 229 252 270 283 290 292 294 296 295 291 289 290 292 292 292 292 290 287 286 284 280 278 264 231 204 194 197 202 203 200 200 203 202 201 214 230 239 249 262 275 286 292 295 299 302 304 308 315 319 319 316 311 308 303 298 294 291 288
205 206 208 218 238 263 284 292 294 295 296 295 293 290 287 287 288 288 288 288 288 287 287 286 281 274 267 244 213 199 198 204 210 211 207 206 211 216 221 227 233 242 259 274 283 288 289 291 295 299 303 309 314 318 319 318 314 309 306 302 298 294 290
220 224 232 244 256 267 283 300 304 300 295 288 283 282 284 285 285 284 284 285 286 285 285 284 273 259 243 220 205 202 205 210 211 212 211 213 220 228 230 231 241 260 277 284 286 285 284 287 293 298 304 308 312 315 319 319 316 312 308 305 300 294 291
240 242 247 254 262 266 272 284 293 292 287 281 279 281 283 282 282 283 282 283 284 282 281 278 263 240 221 209 205 204 206 207 209 212 216 220 224 225 227 238 257 273 280 280 279 278 280 287 293 298 303 308 311 313 316 317 315 312 309 305 300 294 291
253 253 255 260 267 271 272 274 280 284 285 284 283 283 282 280 280 280 278 278 279 277 275 270 250 228 215 209 206 205 204 204 209 216 217 217 217 221 232 250 263 269 271 270 271 275 282 288 293 299 304 307 308 309 310 312 313 311 307 303 299 294 291
262 263 264 265 268 270 269 272 281 288 290 288 285 282 281 278 276 276 275 276 275 272 270 263 246 230 221 214 210 208 208 208 215 225 226 224 226 235 246 256 261 262 263 266 271 278 284 289 294 299 302 303 304 305 307 310 312 310 306 302 298 294 291
262 264 265 264 264 267 274 282 291 294 292 288 284 280 278 277 277 278 278 277 275 272 272 269 257 243 233 224 215 210 211 221 236 246 243 237 239 246 252 255 256 256 260 267 275 281 286 290 294 297 299 301 303 305 307 309 310 308 304 300 297 293 291
Height
3155 3156 3158 3160 3162 3163 3164 3166 3167 3169 3171 3172 3174 3175 3176 3178 3179 3180 3181 3182 3183 3184 3184 3185 3186 3187 3188 3189 3189 3190 3191 3191 3192 3192 3193 3193 3193 3193 3193 3192 3192 3191 3191 3190 3190 3189 3188 3187 3186 3185 3184 3182 3181 3179 3178 3177 3176 3176 3175 3174 3173 3172 3172
3151 3153 3155 3157 3159 3160 3162 3164 3165 3167 3168 3170 3171 3173 3174 3175 3176 3177 3179 3180 3181 3182 3182 3183 3184 3185 3186 3187 3187 3188 3189 3189 3190 3190 3191 3191 3191 3191 3191 3190 3190 3190 3189 3189 3189 3188 3187 3186 3185 3184 3183 3181 3179 3178 3176 3175 3175 3174 3173 3172 3171 3171 3170
3148 3150 3153 3154 3156 3158 3160 3161 3163 3164 3166 3167 3169 3170 3171 3173 3174 3176 3177 3178 3179 3179 3180 3181 3182 3183 3184 3185 3185 3186 3186 3187 3188 3188 3189 3189 3189 3189 3189 3189 3188 3188 3188 3188 3187 3187 3186 3185 3184 3183 3181 3180 3178 3176 3175 3174 3173 3172 3172 3171 3170 3169 3169
3145 3148 3151 3153 3154 3156 3157 3159 3160 3162 3163 3165 3166 3168 3169 3171 3172 3173 3174 3176 3176 3177 3178 3179 3180 3181 3182 3182 3183 3184 3184 3185 3186 3186 3187 3187 3187 3187 3187 3187 3187 3187 3187 3186 3186 3185 3185 3184 3183 3181 3180 3178 3176 3175 3173 3172 3171 3171 3170 3169 3169 3168 3167
3142 3146 3149 3150 3151 3153 3154 3156 3157 3159 3161 3162 3164 3166 3167 3169 3170 3171 3172 3173 3174 3175 3176 3177 3178 3178 3179 3180 3180 3181 3182 3183 3183 3184 3184 3184 3184 3185 3185 3185 3185 3185 3185 3185 3184 3184 3183 3182 3181 3179 3178 3176 3174 3172 3171 3170 3169 3169 3168 3168 3167 3166 3165
3139 3142 3145 3147 3149 3150 3151 3153 3155 3157 3158 3160 3162 3164 3165 3166 3167 3168 3170 3170 3171 3172 3173 3173 3174 3175 3176 3176 3177 3178 3179 3179 3180 3181 3181 3181 3182 3182 3182 3183 3183 3183 3183 3183 3183 3182 3181 3180 3179 3177 3175 3173 3172 3170 3169 3168 3167 3167 3166 3166 3165 3164 3163
3137 3139 3143 3145 3147 3148 3149 3151 3152 3154 3157 3158 3160 3162 3163 3164 3165 3166 3167 3168 3168 3169 3170 3171 3171 3172 3173 3173 3174 3175 3175 3176 3176 3177 3178 3178 3179 3180 3180 3180 3181 3181 3181 3181 3181 3180 3180 3179 3177 3175 3173 3171 3169 3168 3167 3166 3165 3164 3164 3163 3163 3162 3161
3135 3138 3140 3142 3144 3146 3147 3148 3149 3152 3154 3156 3157 3158 3160 3161 3162 3163 3164 3165 3166 3166 3167 3168 3169 3169 3170 3170 3171 3172 3172 3173 3173 3174 3174 3176 3177 3177 3178 3178 3179 3179 3179 3179 3178 3178 3178 3177 3175 3173 3171 3169 3168 3166 3165 3164 3163 3162 3162 3162 3161 3160 3159
3133 3136 3138 3140 3142 3144 3144 3145 3147 3150 3152 3153 3155 3156 3158 3158 3159 3160 3161 3162 3163 3163 3164 3165 3166 3166 3167 3167 3168 3169 3169 3169 3170 3170 3171 3173 3174 3174 3175 3176 3176 3177 3176 3176 3176 3176 3176 3175 3173 3172 3170 3168 3167 3165 3164 3163 3162 3161 3161 3160 3159 3158 3157
3131 3133 3136 3138 3140 3141 3142 3143 3145 3147 3149 3150 3152 3153 3154 3155 3156 3157 3158 3159 3159 3160 3161 3162 3162 3163 3164 3164 3164 3165 3165 3166 3166 3167 3168 3169 3170 3171 3172 3173 3174 3174 3174 3173 3174 3174 3173 3173 3171 3170 3168 3167 3166 3164 3163 3162 3161 3161 3160 3159 3157 3156 3155
3129 3131 3134 3136 3137 3138 3140 3141 3142 3144 3145 3147 3149 3150 3151 3152 3153 3154 3155 3156 3157 3158 3159 3158 3159 3160 3160 3160 3161 3161 3161 3162 3162 3163 3163 3165 3166 3167 3169 3170 3171 3170 3170 3171 3171 3171 3171 3170 3169 3168 3167 3166 3164 3163 3162 3161 3160 3159 3158 3157 3156 3154 3153
3128 3129 3131 3133 3134 3136 3137 3138 3140 3141 3143 3145 3146 3147 3149 3150 3151 3152 3153 3154 3155 3156 3156 3155 3156 3156 3156 3157 3157 3157 3157 3157 3157 3158 3160 3161 3163 3165 3166 3167 3168 3168 3168 3168 3168 3168 3168 3167 3167 3166 3165 3164 3162 3161 3160 3159 3158 3157 3156 3155 3154 3152 3151
3125 3127 3129 3131 3132 3134 3135 3136 3138 3140 3141 3142 3144 3145 3146 3147 3148 3149 3150 3151 3152 3153 3153 3152 3153 3153 3154 3154 3153 3153 3154 3151 3150 3153 3157 3159 3161 3163 3164 3165 3165 3165 3165 3166 3166 3166 3166 3165 3165 3164 3162 3161 3160 3159 3158 3157 3156 3155 3154 3153 3151 3150 3149
3123 3125 3127 3129 3130 3132 3133 3134 3136 3138 3139 3141 3142 3143 3144 3145 3146 3147 3147 3149 3149 3149 3149 3149 3150 3150 3150 3150 3150 3150 3147 3142 3145 3152 3157 3159 3161 3161 3162 3162 3162 3163 3163 3163 3163 3164 3164 3163 3162 3161 3160 3159 3158 3157 3156 3155 3154 3153 3152 3150 3149 3148 3147
3121 3123 3125 3126 3128 3129 3131 3133 3135 3136 3138 3139 3140 3141 3142 3142 3143 3144 3144 3145 3146 3146 3146 3147 3147 3147 3148 3148 3146 3142 3138 3138 3146 3154 3156 3157 3158 3158 3158 3159 3160 3160 3160 3160 3161 3162 3161 3160 3159 3158 3157 3156 3156 3155 3154 3153 3152 3151 3150 3148 3147 3146 3145
3118 3120 3122 3124 3126 3127 3130 3131 3133 3135 3136 3137 3138 3139 3140 3140 3141 3141 3142 3142 3143 3143 3144 3144 3144 3146 3146 3142 3137 3136 3138 3142 3147 3152 3153 3153 3153 3154 3155 3156 3157 3158 3157 3158 3159 3159 3158 3157 3156 3155 3154 3153 3153 3153 3152 3151 3150 3149 3148 3146 3145 3144 3143
3115 3117 3119 3121 3123 3126 3128 3130 3131 3133 3134 3135 3136 3137 3138 3138 3139 3139 3139 3139 3140 3140 3140 3141 3141 3141 3138 3135 3135 3138 3140 3142 3145 3148 3149 3148 3148 3150 3151 3152 3154 3154 3154 3156 3157 3156 3155 3154 3154 3152 3151 3150 3150 3150 3149 3148 3147 3146 3145 3143 3142 3141 3139
3112 3114 3116 3119 3122 3124 3126 3128 3129 3131 3132 3133 3134 3135 3135 3136 3136 3136 3137 3137 3137 3138 3138 3137 3136 3134 3131 3133 3136 3135 3134 3137 3142 3142 3142 3143 3144 3145 3146 3148 3150 3150 3151 3152 3153 3152 3152 3152 3151 3149 3148 3147 3147 3147 3146 3145 3144 3143 3141 3140 3138 3137 3136
3109 3112 3115 3118 3120 3122 3124 3126 3127 3129 3130 3131 3131 3132 3132 3133 3133 3133 3134 3135 3135 3135 3135 3133 3131 3129 3130 3131 3132 3130 3129 3133 3137 3137 3138 3141 3141 3140 3141 3144 3146 3147 3148 3149 3149 3149 3149 3149 3148 3147 3145 3144 3144 3143 3143 3142 3141 3140 3138 3136 3135 3133 3132
3108 3112 3114 3116 3118 3120 3122 3124 3125 3126 3127 3128 3129 3129 3129 3129 3129 3130 3130 3131 3132 3132 3131 3129 3127 3127 3128 3128 3128 3127 3126 3128 3131 3132 3134 3136 3135 3136 3138 3140 3142 3144 3145 3145 3146 3146 3146 3146 3145 3144 3142 3142 3141 3140 3140 3139 3138 3136 3135 3133 3132 3130 3128
3108 3110 3112 3114 3116 3118 3119 3121 3123 3124 3125 3125 3125 3126 3126 3126 3126 3126 3126 3127 3127 3127 3126 3124 3124 3124 3124 3124 3124 3123 3123 3124 3125 3127 3128 3128 3129 3131 3133 3135 3138 3140 3141 3141 3142 3143 3143 3143 3142 3141 3140 3139 3138 3137 3136 3136 3135 3133 3132 3130 3129 3127 3125
3107 3109 3111 3113 3114 3116 3118 3120 3121 3121 3121 3122 3122 3122 3122 3122 3122 3122 3122 3122 3122 3122 3121 3120 3120 3120 3121 3121 3121 3120 3120 3120 3121 3123 3123 3124 3125 3126 3129 3131 3133 3135 3136 3138 3139 3140 3140 3140 3139 3138 3137 3136 3135 3134 3133 3133 3132 3130 3129 3128 3126 3124 3122
3106 3108 3110 3112 3114 3116 3117 3117 3117 3118 3118 3119 3119 3120 3120 3120 3119 3119 3118 3118 3118 3118 3117 3117 3116 3117 3118 3118 3117 3117 3116 3116 3118 3119 3120 3120 3122 3124 3126 3128 3130 3132 3133 3133 3135 3136 3136 3136 3136 3135 3134 3132 3132 3131 3130 3130 3129 3128 3126 3125 3123 3121 3119
3104 3106 3109 3110 3111 3112 3113 3113 3114 3115 3116 3116 3117 3117 3117 3117 3116 3116 3115 3115 3115 3115 3114 3114 3114 3114 3115 3115 3114 3113 3111 3111 3113 3115 3116 3117 3119 3121 3124 3126 3128 3129 3129 3130 3131 3132 3133 3133 3132 3131 3130 3129 3129 3128 3127 3126 3126 3124 3122 3121 3119 3117 3115
3101 3103 3105 3107 3108 3109 3110 3112 3112 3112 3113 3114 3114 3114 3114 3114 3114 3113 3112 3112 3112 3111 3111 3111 3111 3111 3111 3110 3110 3109 3108 3108 3109 3110 3112 3114 3115 3117 3120 3122 3124 3125 3125 3126 3128 3129 3130 3130 3129 3128 3127 3126 3125 3124 3123 3122 3121 3120 3118 3116 3115 3113 3111
3098 3100 3102 3103 3104 3106 3108 3109 3110 3110 3111 3111 3111 3111 3111 3111 3111 3110 3110 3109 3109 3108 3108 3107 3107 3107 3106 3106 3106 3106 3105 3105 3106 3107 3108 3110 3111 3113 3115 3117 3119 3121 3122 3123 3125 3126 3127 3126 3126 3125 3124 3123 3121 3120 3119 3118 3117 3116 3114 3112 3110 3109 3106
3096 3098 3099 3100 3101 3102 3104 3106 3107 3108 3108 3108 3109 3109 3108 3108 3108 3108 3107 3107 3106 3106 3105 3104 3103 3103 3102 3102 3102 3102 3101 3102 3103 3105 3106 3107 3108 3109 3111 3113 3116 3117 3118 3120 3122 3123 3123 3123 3122 3121 3121 3120 3118 3117 3116 3114 3113 3111 3110 3108 3106 3105 3102
3095 3096 3097 3097 3098 3100 3101 3103 3104 3105 3105 3106 3106 3106 3105 3105 3105 3105 3104 3104 3104 3103 3102 3101 3100 3099 3098 3097 3097 3097 3098 3098 3100 3102 3104 3105 3106 3106 3108 3110 3112 3113 3115 3118 3119 3120 3120 3119 3118 3117 3117 3116 3115 3114 3112 3111 3109 3108 3106 3105 3103 3100 3098
3092 3093 3094 3095 3096 3097 3099 3101 3102 3102 3103 3103 3103 3103 3102 3101 3101 3100 3101 3100 3100 3100 3099 3098 3097 3095 3094 3093 3092 3093 3094 3095 3097 3099 3101 3102 3104 3104 3106 3107 3108 3111 3113 3115 3116 3116 3116 3115 3114 3113 3113 3112 3112 3110 3109 3107 3106 3104 3102 3100 3098 3096 3094
3088 3090 3091 3093 3094 3095 3097 3098 3099 3100 3100 3101 3100 3100 3098 3097 3097 3096 3096 3096 3096 3096 3095 3094 3092 3091 3090 3089 3089 3090 3091 3093 3095 3097 3098 3100 3101 3102 3103 3104 3106 3108 3111 3112 3112 3112 3111 3111 3110 3110 3109 3109 3108 3107 3105 3103 3101 3099 3097 3095 3094 3092 3090
3085 3087 3088 3090 3091 3092 3093 3095 3096 3097 3098 3098 3097 3096 3095 3094 3093 3093 3093 3093 3092 3092 3091 3090 3089 3087 3086 3085 3085 3087 3088 3090 3092 3094 3096 3097 3099 3099 3100 3101 3104 3106 3108 3108 3108 3108 3107 3107 3106 3106 3105 3105 3104 3102 3100 3098 3096 3095 3093 3091 3089 3087 3086
3081 3083 3084 3085 3086 3088 3089 3090 3092 3093 3093 3094 3094 3093 3092 3091 3090 3089 3089 3089 3088 3088 3087 3086 3085 3083 3082 3082 3083 3085 3086 3088 3090 3092 3093 3094 3095 3096 3097 3099 3101 3103 3104 3104 3104 3104 3104 3103 3102 3102 3101 3100 3099 3097 3096 3094 3093 3091 3089 3086 3084 3083 3082
3079 3080 3081 3082 3083 3084 3086 3087 3088 3088 3088 3089 3090 3090 3089 3088 3087 3086 3085 3085 3084 3084 3083 3082 3081 3080 3080 3080 3082 3083 3085 3087 3089 3090 3091 3092 3093 3095 3096 3097 3098 3100 3101 3101 3101 3100 3100 3099 3099 3098 3097 3096 3094 3093 3091 3090 3089 3086 3084 3082 3080 3079 3078
3077 3078 3078 3079 3080 3081 3082 3083 3083 3083 3084 3086 3087 3086 3085 3084 3083 3082 3082 3081 3080 3080 3079 3079 3078 3077 3078 3078 3080 3082 3084 3085 3087 3088 3090 3091 3093 3094 3095 3095 3096 3097 3097 3097 3097 3097 3096 3096 3095 3094 3093 3091 3090 3088 3087 3086 3084 3082 3080 3078 3076 3075 3074
3076 3076 3076 3076 3077 3078 3078 3078 3080 3081 3083 3083 3082 3082 3081 3080 3079 3079 3078 3078 3077 3077 3077 3076 3076 3076 3076 3077 3078 3080 3082 3084 3086 3087 3089 3090 3091 3092 3093 3093 3094 3094 3094 3093 3093 3093 3092 3092 3091 3089 3088 3087 3085 3083 3082 3081 3080 3078 3076 3074 3073 3071 3070
3073 3073 3073 3073 3074 3074 3074 3075 3078 3080 3080 3079 3078 3077 3077 3076 3076 3075 3075 3075 3075 3075 3074 3074 3074 3074 3075 3076 3077 3078 3080 3081 3083 3085 3086 3087 3088 3088 3089 3089 3090 3090 3090 3090 3090 3089 3088 3088 3086 3085 3083 3082 3081 3079 3078 3077 3076 3074 3072 3070 3069 3067 3065
3070 3070 3070 3069 3070 3071 3072 3074 3075 3076 3075 3075 3074 3074 3073 3073 3073 3072 3072 3073 3073 3073 3072 3072 3072 3072 3073 3074 3075 3076 3077 3078 3080 3082 3083 3085 3085 3085 3086 3086 3086 3087 3087 3086 3086 3085 3084 3083 3082 3080 3079 3078 3077 3076 3075 3073 3072 3070 3068 3066 3064 3063 3061
3066 3067 3067 3067 3068 3069 3070 3071 3071 3071 3071 3071 3071 3070 3070 3070 3070 3070 3070 3071 3071 3071 3071 3071 3071 3071 3072 3072 3072 3074 3076 3078 3079 3080 3082 3083 3083 3083 3083 3083 3083 3083 3083 3082 3082 3081 3080 3079 3077 3076 3075 3074 3073 3072 3071 3069 3068 3066 3064 3062 3060 3059 3057